SDM6115 ULLI-URWW

Flight info

Callsign SDM6115
Flight time 2h 7m
Altitude 37000
Route K0857F370 SUGI1B SUGIN T873 NIRGI T873 IRDEK L4 UPERI T833 TOGMO M56 ABAGI B105 NIMTA/K0817F360 B105 NATIT NATI2J
Aircraft A319/M-SDFGHIJ1RWY/B1L

Departure

Time 2026-04-26 13:18
Airport Pulkovo Airport (ULLI)

Arrival

Time 2026-04-26 15:26
Airport Volgograd International Airport (URWW)
Time Latitude Longitude Altitude Speed Heading
2026-04-26 12:06 59.79628 30.26601 83 ft 0 kts 95°
2026-04-26 13:02 59.79629 30.26576 87 ft 3 kts 94°
2026-04-26 13:02 59.79630 30.26536 84 ft 3 kts 90°
2026-04-26 13:03 59.79630 30.26495 86 ft 3 kts 84°
2026-04-26 13:03 59.79627 30.26456 86 ft 3 kts 71°
2026-04-26 13:03 59.79619 30.26424 88 ft 2 kts 28°
2026-04-26 13:03 59.79611 30.26416 86 ft 1 kts 17°
2026-04-26 13:04 59.79610 30.26416 86 ft 0 kts 17°
2026-04-26 13:08 59.79611 30.26417 81 ft 1 kts 17°
2026-04-26 13:08 59.79636 30.26431 81 ft 6 kts 16°
2026-04-26 13:08 59.79688 30.26461 85 ft 10 kts 17°
2026-04-26 13:08 59.79757 30.26503 82 ft 10 kts 16°
2026-04-26 13:09 59.79817 30.26538 82 ft 8 kts 17°
2026-04-26 13:09 59.79873 30.26571 84 ft 8 kts 17°
2026-04-26 13:09 59.79926 30.26603 81 ft 9 kts 16°
2026-04-26 13:09 59.79988 30.26639 83 ft 9 kts 16°
2026-04-26 13:10 59.80047 30.26673 85 ft 8 kts 17°
2026-04-26 13:10 59.80109 30.26710 81 ft 11 kts 17°
2026-04-26 13:10 59.80179 30.26752 83 ft 10 kts 17°
2026-04-26 13:10 59.80244 30.26790 82 ft 9 kts 17°
2026-04-26 13:11 59.80301 30.26824 81 ft 8 kts 17°
2026-04-26 13:11 59.80351 30.26853 83 ft 7 kts 17°
2026-04-26 13:11 59.80385 30.26901 85 ft 6 kts 69°
2026-04-26 13:11 59.80378 30.26982 81 ft 8 kts 106°
2026-04-26 13:12 59.80355 30.27136 83 ft 16 kts 107°
2026-04-26 13:12 59.80320 30.27366 82 ft 18 kts 107°
2026-04-26 13:12 59.80284 30.27604 82 ft 19 kts 106°
2026-04-26 13:12 59.80248 30.27849 80 ft 18 kts 106°
2026-04-26 13:13 59.80213 30.28085 80 ft 17 kts 107°
2026-04-26 13:13 59.80179 30.28306 80 ft 16 kts 107°
2026-04-26 13:13 59.80149 30.28509 75 ft 15 kts 106°
2026-04-26 13:13 59.80122 30.28693 79 ft 13 kts 105°
2026-04-26 13:14 59.80097 30.28860 75 ft 12 kts 107°
2026-04-26 13:14 59.80074 30.29015 78 ft 12 kts 107°
2026-04-26 13:14 59.80050 30.29173 78 ft 11 kts 106°
2026-04-26 13:14 59.80029 30.29317 68 ft 10 kts 107°
2026-04-26 13:15 59.80007 30.29461 75 ft 12 kts 107°
2026-04-26 13:15 59.79980 30.29643 73 ft 15 kts 107°
2026-04-26 13:15 59.79952 30.29824 72 ft 13 kts 106°
2026-04-26 13:15 59.79939 30.29911 67 ft 9 kts 106°
2026-04-26 13:16 59.79949 30.30050 68 ft 7 kts 53°
2026-04-26 13:16 59.79979 30.30112 76 ft 6 kts 49°
2026-04-26 13:16 59.79996 30.30151 73 ft 3 kts 47°
2026-04-26 13:16 59.80015 30.30192 74 ft 7 kts 47°
2026-04-26 13:17 59.80091 30.30301 76 ft 6 kts
2026-04-26 13:17 59.80116 30.30271 71 ft 3 kts 292°
2026-04-26 13:18 59.80161 30.29973 72 ft 56 kts 287°
2026-04-26 13:18 59.80352 30.28706 75 ft 131 kts 287°
2026-04-26 13:18 59.80985 30.24634 1283 ft 153 kts 294°
2026-04-26 13:19 59.81256 30.22633 2098 ft 153 kts 296°
2026-04-26 13:19 59.81497 30.20565 2889 ft 156 kts 295°
2026-04-26 13:19 59.81266 30.18264 3546 ft 194 kts 249°
2026-04-26 13:19 59.80089 30.16519 3880 ft 234 kts 202°
2026-04-26 13:20 59.78400 30.15934 4195 ft 258 kts 183°
2026-04-26 13:20 59.76571 30.16401 4547 ft 277 kts 153°
2026-04-26 13:20 59.74838 30.18298 5231 ft 290 kts 146°
2026-04-26 13:20 59.73073 30.20267 6255 ft 292 kts 147°
2026-04-26 13:21 59.71295 30.22275 7205 ft 296 kts 147°
2026-04-26 13:21 59.70104 30.23632 7832 ft 300 kts 147°
2026-04-26 13:21 59.67921 30.27017 8999 ft 300 kts 119°
2026-04-26 13:21 59.67242 30.30827 9719 ft 297 kts 88°
2026-04-26 13:22 59.67541 30.34909 10038 ft 310 kts 68°
2026-04-26 13:22 59.67931 30.39280 10387 ft 338 kts 83°
2026-04-26 13:22 59.67773 30.44007 11099 ft 350 kts 92°
2026-04-26 13:22 59.67343 30.48798 11944 ft 356 kts 97°
2026-04-26 13:23 59.66820 30.53614 12795 ft 360 kts 97°
2026-04-26 13:23 59.66303 30.58481 13571 ft 363 kts 97°
2026-04-26 13:23 59.65832 30.63403 14301 ft 367 kts 95°
2026-04-26 13:23 59.65412 30.68403 15024 ft 370 kts 94°
2026-04-26 13:24 59.65018 30.73455 15747 ft 374 kts 94°
2026-04-26 13:24 59.64615 30.78557 16465 ft 378 kts 95°
2026-04-26 13:24 59.64198 30.83727 17174 ft 382 kts 95°
2026-04-26 13:24 59.63769 30.88935 17856 ft 386 kts 95°
2026-04-26 13:25 59.63327 30.94191 18481 ft 390 kts 95°
2026-04-26 13:25 59.62875 30.99502 19112 ft 393 kts 95°
2026-04-26 13:25 59.62424 31.04774 19740 ft 397 kts 95°
2026-04-26 13:25 59.61960 31.10174 20375 ft 400 kts 96°
2026-04-26 13:26 59.61490 31.15621 20993 ft 403 kts 96°
2026-04-26 13:26 59.61016 31.21109 21587 ft 407 kts 96°
2026-04-26 13:26 59.60537 31.26632 22164 ft 410 kts 96°
2026-04-26 13:26 59.60050 31.32214 22739 ft 414 kts 96°
2026-04-26 13:27 59.59559 31.37824 23238 ft 417 kts 96°
2026-04-26 13:27 59.59060 31.43488 23669 ft 421 kts 97°
2026-04-26 13:27 59.58553 31.49210 24081 ft 424 kts 97°
2026-04-26 13:27 59.58040 31.54967 24490 ft 427 kts 98°
2026-04-26 13:28 59.57522 31.60756 24888 ft 431 kts 98°
2026-04-26 13:28 59.56995 31.66605 25291 ft 434 kts 98°
2026-04-26 13:28 59.56463 31.72489 25694 ft 438 kts 98°
2026-04-26 13:28 59.55923 31.78426 26075 ft 442 kts 99°
2026-04-26 13:29 59.55383 31.84338 26423 ft 445 kts 99°
2026-04-26 13:29 59.55009 31.88399 26658 ft 448 kts 99°
2026-04-26 13:29 59.54265 31.96443 27108 ft 453 kts 99°
2026-04-26 13:29 59.53605 32.02528 27441 ft 456 kts 105°
2026-04-26 13:30 59.52495 32.08395 27764 ft 459 kts 115°
2026-04-26 13:30 59.50917 32.13875 28093 ft 462 kts 125°
2026-04-26 13:30 59.48910 32.18824 28415 ft 464 kts 134°
2026-04-26 13:30 59.46629 32.23315 28745 ft 465 kts 136°
2026-04-26 13:31 59.44321 32.27812 29062 ft 468 kts 136°
2026-04-26 13:31 59.42007 32.32320 29381 ft 470 kts 136°
2026-04-26 13:31 59.39677 32.36849 29689 ft 471 kts 136°
2026-04-26 13:31 59.37350 32.41365 30040 ft 470 kts 136°
2026-04-26 13:32 59.35026 32.45864 30378 ft 470 kts 137°
2026-04-26 13:32 59.33479 32.48853 30593 ft 471 kts 137°
2026-04-26 13:32 59.31151 32.53343 30895 ft 471 kts 137°
2026-04-26 13:32 59.28811 32.57845 31225 ft 471 kts 137°
2026-04-26 13:33 59.26471 32.62336 31561 ft 471 kts 137°
2026-04-26 13:33 59.24130 32.66819 31899 ft 471 kts 137°
2026-04-26 13:33 59.21785 32.71299 32231 ft 471 kts 137°
2026-04-26 13:33 59.19440 32.75771 32553 ft 472 kts 137°
2026-04-26 13:34 59.17092 32.80243 32884 ft 472 kts 137°
2026-04-26 13:34 59.14746 32.84702 33221 ft 472 kts 137°
2026-04-26 13:34 59.12393 32.89163 33532 ft 472 kts 137°
2026-04-26 13:34 59.10805 32.92170 33725 ft 472 kts 137°
2026-04-26 13:35 59.07690 32.98058 34092 ft 471 kts 137°
2026-04-26 13:35 59.05339 33.02494 34349 ft 471 kts 137°
2026-04-26 13:35 59.02985 33.06920 34604 ft 471 kts 137°
2026-04-26 13:35 59.00636 33.11329 34857 ft 470 kts 137°
2026-04-26 13:36 58.98280 33.15737 35105 ft 470 kts 137°
2026-04-26 13:36 58.95928 33.20131 35347 ft 469 kts 137°
2026-04-26 13:36 58.93581 33.24505 35574 ft 469 kts 138°
2026-04-26 13:36 58.91223 33.28895 35791 ft 469 kts 138°
2026-04-26 13:37 58.88875 33.33260 36008 ft 469 kts 138°
2026-04-26 13:37 58.86524 33.37628 36204 ft 468 kts 138°
2026-04-26 13:37 58.84175 33.41985 36380 ft 469 kts 138°
2026-04-26 13:38 58.79461 33.50684 36435 ft 468 kts 138°
2026-04-26 13:38 58.74748 33.59344 36443 ft 468 kts 138°
2026-04-26 13:39 58.70031 33.67981 36440 ft 468 kts 138°
2026-04-26 13:39 58.65310 33.76591 36443 ft 468 kts 138°
2026-04-26 13:40 58.60586 33.85176 36445 ft 467 kts 139°
2026-04-26 13:40 58.55890 33.93670 36450 ft 467 kts 139°
2026-04-26 13:41 58.51159 34.02197 36438 ft 467 kts 139°
2026-04-26 13:41 58.46422 34.10704 36449 ft 467 kts 139°
2026-04-26 13:42 58.41680 34.19189 36452 ft 467 kts 139°
2026-04-26 13:42 58.36930 34.27648 36455 ft 467 kts 139°
2026-04-26 13:43 58.32176 34.36076 36453 ft 467 kts 139°
2026-04-26 13:43 58.27417 34.44494 36449 ft 467 kts 139°
2026-04-26 13:44 58.22651 34.52880 36455 ft 467 kts 139°
2026-04-26 13:44 58.17612 34.60573 36454 ft 464 kts 149°
2026-04-26 13:45 58.12208 34.67256 36460 ft 464 kts 149°
2026-04-26 13:45 58.06803 34.73932 36461 ft 464 kts 149°
2026-04-26 13:46 58.01395 34.80591 36467 ft 464 kts 149°
2026-04-26 13:46 57.96021 34.87182 36471 ft 464 kts 149°
2026-04-26 13:47 57.90612 34.93789 36472 ft 463 kts 149°
2026-04-26 13:47 57.85205 35.00368 36467 ft 463 kts 149°
2026-04-26 13:48 57.79795 35.06928 36473 ft 463 kts 149°
2026-04-26 13:48 57.74349 35.13508 36474 ft 462 kts 149°
2026-04-26 13:49 57.68982 35.19969 36476 ft 462 kts 149°
2026-04-26 13:49 57.63579 35.26449 36471 ft 461 kts 149°
2026-04-26 13:50 57.58174 35.32909 36471 ft 461 kts 149°
2026-04-26 13:50 57.52774 35.39340 36474 ft 461 kts 149°
2026-04-26 13:51 57.47366 35.45757 36466 ft 461 kts 149°
2026-04-26 13:51 57.41960 35.52150 36480 ft 461 kts 150°
2026-04-26 13:52 57.36545 35.58530 36485 ft 461 kts 150°
2026-04-26 13:52 57.31130 35.64886 36480 ft 461 kts 150°
2026-04-26 13:53 57.25713 35.71224 36481 ft 461 kts 150°
2026-04-26 13:53 57.20294 35.77541 36478 ft 460 kts 150°
2026-04-26 13:54 57.14876 35.83835 36475 ft 460 kts 150°
2026-04-26 13:54 57.09459 35.90105 36473 ft 460 kts 150°
2026-04-26 13:55 57.02256 35.98410 36468 ft 459 kts 150°
2026-04-26 13:56 56.93257 36.08730 36462 ft 459 kts 151°
2026-04-26 13:56 56.87811 36.14947 36460 ft 458 kts 151°
2026-04-26 13:57 56.82434 36.21063 36456 ft 458 kts 151°
2026-04-26 13:57 56.77024 36.27213 36449 ft 458 kts 150°
2026-04-26 13:58 56.71637 36.33435 36450 ft 458 kts 150°
2026-04-26 13:58 56.66241 36.39602 36458 ft 458 kts 151°
2026-04-26 13:59 56.60827 36.45686 36453 ft 457 kts 151°
2026-04-26 13:59 56.55412 36.51732 36454 ft 457 kts 151°
2026-04-26 14:00 56.44741 36.64225 36445 ft 456 kts 149°
2026-04-26 14:01 56.39413 36.70424 36440 ft 455 kts 151°
2026-04-26 14:01 56.34013 36.76363 36432 ft 454 kts 152°
2026-04-26 14:02 56.28602 36.82231 36429 ft 454 kts 152°
2026-04-26 14:02 56.23207 36.88124 36426 ft 454 kts 152°
2026-04-26 14:03 56.17819 36.94036 36422 ft 454 kts 152°
2026-04-26 14:03 56.12459 36.99896 36418 ft 454 kts 152°
2026-04-26 14:04 56.07073 37.05793 36413 ft 454 kts 150°
2026-04-26 14:04 56.01831 37.12340 36413 ft 461 kts 147°
2026-04-26 14:05 55.96696 37.19314 36421 ft 472 kts 146°
2026-04-26 14:05 55.91392 37.26416 36421 ft 482 kts 147°
2026-04-26 14:06 55.85966 37.33451 36413 ft 472 kts 148°
2026-04-26 14:06 55.80738 37.40157 36416 ft 459 kts 148°
2026-04-26 14:07 55.75571 37.46765 36417 ft 457 kts 148°
2026-04-26 14:07 55.70387 37.53267 36419 ft 456 kts 149°
2026-04-26 14:08 55.65167 37.59662 36414 ft 456 kts 149°
2026-04-26 14:08 55.59992 37.66149 36408 ft 456 kts 148°
2026-04-26 14:09 55.54903 37.72878 36414 ft 457 kts 147°
2026-04-26 14:09 55.49835 37.79669 36426 ft 457 kts 147°
2026-04-26 14:10 55.44740 37.86353 36425 ft 456 kts 148°
2026-04-26 14:10 55.39535 37.92695 36423 ft 453 kts 152°
2026-04-26 14:11 55.31500 38.01273 36423 ft 454 kts 151°
2026-04-26 14:11 55.26254 38.07437 36413 ft 454 kts 150°
2026-04-26 14:12 55.20943 38.13367 36408 ft 452 kts 154°
2026-04-26 14:12 55.15532 38.18947 36403 ft 452 kts 154°
2026-04-26 14:13 55.07504 38.27620 36403 ft 452 kts 152°
2026-04-26 14:14 55.02206 38.33528 36407 ft 452 kts 152°
2026-04-26 14:14 54.96910 38.39444 36409 ft 452 kts 152°
2026-04-26 14:15 54.91612 38.45357 36411 ft 452 kts 153°
2026-04-26 14:15 54.86300 38.51173 36410 ft 451 kts 153°
2026-04-26 14:16 54.80982 38.56930 36408 ft 451 kts 153°
2026-04-26 14:16 54.75666 38.62673 36413 ft 450 kts 153°
2026-04-26 14:17 54.70436 38.68537 36410 ft 452 kts 151°
2026-04-26 14:17 54.65248 38.74639 36411 ft 451 kts 152°
2026-04-26 14:18 54.59978 38.80475 36409 ft 449 kts 153°
2026-04-26 14:18 54.54651 38.86078 36411 ft 448 kts 154°
2026-04-26 14:19 54.49318 38.91641 36418 ft 448 kts 154°
2026-04-26 14:19 54.44009 38.97257 36420 ft 448 kts 154°
2026-04-26 14:20 54.39258 39.04346 36421 ft 463 kts 133°
2026-04-26 14:20 54.37478 39.08996 36418 ft 471 kts 122°
2026-04-26 14:20 54.36146 39.14179 36417 ft 476 kts 117°
2026-04-26 14:21 54.33565 39.24599 36414 ft 472 kts 122°
2026-04-26 14:21 54.30359 39.34364 36421 ft 470 kts 125°
2026-04-26 14:22 54.27375 39.44374 36425 ft 474 kts 120°
2026-04-26 14:22 54.24834 39.54821 36421 ft 477 kts 117°
2026-04-26 14:23 54.22407 39.65365 36432 ft 476 kts 117°
2026-04-26 14:23 54.19878 39.75817 36431 ft 475 kts 118°
2026-04-26 14:24 54.17266 39.86180 36438 ft 475 kts 119°
2026-04-26 14:24 54.14640 39.96538 36439 ft 475 kts 119°
2026-04-26 14:25 54.12024 40.06900 36441 ft 476 kts 119°
2026-04-26 14:25 54.10074 40.15693 36448 ft 482 kts 111°
2026-04-26 14:26 54.08183 40.26649 36452 ft 482 kts 112°
2026-04-26 14:26 54.06273 40.37576 36461 ft 482 kts 112°
2026-04-26 14:27 54.04341 40.48504 36466 ft 482 kts 112°
2026-04-26 14:27 54.02404 40.59404 36465 ft 482 kts 112°
2026-04-26 14:28 54.00457 40.70307 36467 ft 482 kts 112°
2026-04-26 14:28 53.98501 40.81201 36474 ft 482 kts 112°
2026-04-26 14:29 53.96536 40.92081 36480 ft 482 kts 112°
2026-04-26 14:29 53.94555 41.02954 36477 ft 482 kts 112°
2026-04-26 14:30 53.92666 41.13896 36481 ft 484 kts 111°
2026-04-26 14:30 53.90893 41.24906 36487 ft 485 kts 110°
2026-04-26 14:31 53.89114 41.35856 36495 ft 484 kts 111°
2026-04-26 14:31 53.87263 41.46909 36503 ft 484 kts 111°
2026-04-26 14:32 53.85406 41.57810 36511 ft 485 kts 111°
2026-04-26 14:32 53.83533 41.68774 36518 ft 485 kts 111°
2026-04-26 14:33 53.81655 41.79736 36525 ft 485 kts 111°
2026-04-26 14:33 53.79769 41.90677 36533 ft 485 kts 112°
2026-04-26 14:34 53.77865 42.01612 36541 ft 485 kts 112°
2026-04-26 14:34 53.75950 42.12540 36551 ft 485 kts 112°
2026-04-26 14:35 53.74026 42.23457 36557 ft 485 kts 112°
2026-04-26 14:35 53.72094 42.34356 36566 ft 484 kts 112°
2026-04-26 14:36 53.70153 42.45235 36574 ft 484 kts 112°
2026-04-26 14:36 53.68088 42.56021 36575 ft 479 kts 120°
2026-04-26 14:37 53.64513 42.65165 36580 ft 460 kts 141°
2026-04-26 14:37 53.59550 42.71519 36575 ft 441 kts 159°
2026-04-26 14:38 53.53982 42.75635 36586 ft 437 kts 163°
2026-04-26 14:38 53.48385 42.79658 36579 ft 438 kts 163°
2026-04-26 14:39 53.42788 42.83675 36590 ft 438 kts 163°
2026-04-26 14:39 53.37175 42.87687 36594 ft 438 kts 163°
2026-04-26 14:40 53.31604 42.91655 36600 ft 438 kts 163°
2026-04-26 14:40 53.25986 42.95644 36603 ft 438 kts 163°
2026-04-26 14:41 53.20375 42.99618 36605 ft 438 kts 163°
2026-04-26 14:41 53.14756 43.03584 36609 ft 438 kts 163°
2026-04-26 14:42 53.09145 43.07570 36614 ft 439 kts 163°
2026-04-26 14:42 53.03558 43.11723 36619 ft 440 kts 162°
2026-04-26 14:43 52.97980 43.15912 36624 ft 440 kts 162°
2026-04-26 14:43 52.92383 43.20062 36630 ft 440 kts 162°
2026-04-26 14:44 52.86779 43.24172 36631 ft 441 kts 162°
2026-04-26 14:44 52.81169 43.28274 36635 ft 441 kts 162°
2026-04-26 14:45 52.75561 43.32369 36640 ft 441 kts 162°
2026-04-26 14:45 52.69943 43.36465 36645 ft 441 kts 162°
2026-04-26 14:46 52.64323 43.40549 36651 ft 442 kts 163°
2026-04-26 14:46 52.58698 43.44625 36654 ft 442 kts 163°
2026-04-26 14:47 52.53102 43.48667 36660 ft 442 kts 163°
2026-04-26 14:47 52.47463 43.52729 36665 ft 443 kts 163°
2026-04-26 14:48 52.41816 43.56786 36668 ft 443 kts 163°
2026-04-26 14:48 52.36158 43.60840 36670 ft 444 kts 163°
2026-04-26 14:49 52.30493 43.64886 36678 ft 444 kts 163°
2026-04-26 14:49 52.24821 43.68926 36687 ft 445 kts 162°
2026-04-26 14:50 52.19144 43.72960 36690 ft 446 kts 162°
2026-04-26 14:50 52.13454 43.76991 36693 ft 446 kts 163°
2026-04-26 14:51 52.07764 43.81008 36696 ft 446 kts 162°
2026-04-26 14:51 52.02071 43.85011 36701 ft 446 kts 163°
2026-04-26 14:52 51.96371 43.89029 36709 ft 447 kts 162°
2026-04-26 14:52 51.90716 43.93248 36719 ft 448 kts 161°
2026-04-26 14:53 51.85033 43.97392 36719 ft 447 kts 162°
2026-04-26 14:53 51.79326 44.01417 36720 ft 448 kts 162°
2026-04-26 14:54 51.73629 44.05471 36720 ft 448 kts 162°
2026-04-26 14:54 51.67955 44.09441 36724 ft 448 kts 162°
2026-04-26 14:55 51.62222 44.13396 36730 ft 448 kts 163°
2026-04-26 14:55 51.56479 44.17344 36742 ft 449 kts 162°
2026-04-26 14:56 51.50728 44.21299 36740 ft 450 kts 162°
2026-04-26 14:56 51.47850 44.23277 36568 ft 451 kts 162°
2026-04-26 14:56 51.44969 44.25255 36308 ft 450 kts 162°
2026-04-26 14:56 51.42087 44.27231 36046 ft 450 kts 162°
2026-04-26 14:57 51.39209 44.29201 35793 ft 450 kts 163°
2026-04-26 14:57 51.36325 44.31170 35540 ft 451 kts 163°
2026-04-26 14:57 51.33443 44.33135 35297 ft 451 kts 163°
2026-04-26 14:57 51.30551 44.35104 35045 ft 452 kts 163°
2026-04-26 14:58 51.27662 44.37069 34800 ft 452 kts 163°
2026-04-26 14:58 51.24765 44.39036 34553 ft 453 kts 163°
2026-04-26 14:58 51.21866 44.41001 34316 ft 453 kts 163°
2026-04-26 14:58 51.18963 44.42966 34077 ft 454 kts 163°
2026-04-26 14:59 51.16019 44.44683 33836 ft 448 kts 171°
2026-04-26 14:59 51.12984 44.45641 33562 ft 441 kts 179°
2026-04-26 14:59 51.09947 44.45832 33287 ft 435 kts 188°
2026-04-26 14:59 51.07946 44.45642 33107 ft 435 kts 189°
2026-04-26 15:00 51.03900 44.45243 32741 ft 436 kts 189°
2026-04-26 15:00 51.00873 44.44955 32468 ft 437 kts 189°
2026-04-26 15:00 50.97833 44.44672 32207 ft 438 kts 188°
2026-04-26 15:00 50.94789 44.44390 31939 ft 439 kts 188°
2026-04-26 15:01 50.91744 44.44107 31679 ft 439 kts 188°
2026-04-26 15:01 50.88685 44.43821 31413 ft 440 kts 189°
2026-04-26 15:01 50.85631 44.43537 31153 ft 440 kts 188°
2026-04-26 15:01 50.82567 44.43252 30886 ft 442 kts 188°
2026-04-26 15:02 50.79491 44.42962 30631 ft 443 kts 188°
2026-04-26 15:02 50.76410 44.42671 30385 ft 444 kts 188°
2026-04-26 15:02 50.73320 44.42378 30140 ft 445 kts 188°
2026-04-26 15:02 50.70268 44.42090 29889 ft 446 kts 188°
2026-04-26 15:03 50.67166 44.41799 29611 ft 447 kts 188°
2026-04-26 15:03 50.64018 44.41505 29325 ft 447 kts 188°
2026-04-26 15:03 50.60911 44.41216 29039 ft 448 kts 188°
2026-04-26 15:03 50.57803 44.40928 28754 ft 448 kts 188°
2026-04-26 15:04 50.54692 44.40640 28480 ft 447 kts 188°
2026-04-26 15:04 50.51589 44.40353 28201 ft 445 kts 188°
2026-04-26 15:04 50.48503 44.40069 27928 ft 443 kts 188°
2026-04-26 15:04 50.45437 44.39787 27657 ft 441 kts 188°
2026-04-26 15:05 50.42379 44.39505 27387 ft 439 kts 188°
2026-04-26 15:05 50.41387 44.39413 27314 ft 438 kts 188°
2026-04-26 15:05 50.36349 44.38947 26862 ft 435 kts 188°
2026-04-26 15:05 50.33336 44.38669 26602 ft 433 kts 188°
2026-04-26 15:06 50.30334 44.38393 26345 ft 431 kts 188°
2026-04-26 15:06 50.27352 44.38118 26091 ft 429 kts 188°
2026-04-26 15:06 50.24374 44.37844 25836 ft 427 kts 188°
2026-04-26 15:06 50.21418 44.37573 25584 ft 425 kts 188°
2026-04-26 15:07 50.15532 44.37034 25086 ft 421 kts 188°
2026-04-26 15:07 50.12612 44.36767 24846 ft 420 kts 188°
2026-04-26 15:07 50.09702 44.36501 24597 ft 418 kts 188°
2026-04-26 15:08 50.06806 44.36237 24360 ft 416 kts 188°
2026-04-26 15:08 50.03929 44.35975 24120 ft 414 kts 188°
2026-04-26 15:08 50.01055 44.35713 23887 ft 413 kts 187°
2026-04-26 15:08 49.98192 44.35453 23656 ft 411 kts 187°
2026-04-26 15:09 49.95347 44.35194 23414 ft 409 kts 187°
2026-04-26 15:09 49.92510 44.34937 23070 ft 405 kts 187°
2026-04-26 15:09 49.89722 44.34687 22431 ft 399 kts 187°
2026-04-26 15:09 49.86972 44.34441 21835 ft 393 kts 187°
2026-04-26 15:10 49.84254 44.34197 21275 ft 389 kts 187°
2026-04-26 15:10 49.82473 44.34036 20904 ft 386 kts 188°
2026-04-26 15:10 49.78940 44.33716 20200 ft 382 kts 188°
2026-04-26 15:10 49.76265 44.33472 19669 ft 379 kts 188°
2026-04-26 15:11 49.73673 44.33237 19185 ft 376 kts 188°
2026-04-26 15:11 49.71072 44.33003 18689 ft 373 kts 188°
2026-04-26 15:11 49.68496 44.32771 18220 ft 370 kts 188°
2026-04-26 15:11 49.65938 44.32541 17700 ft 366 kts 188°
2026-04-26 15:12 49.63414 44.32315 17223 ft 361 kts 188°
2026-04-26 15:12 49.60922 44.32093 16755 ft 356 kts 188°
2026-04-26 15:12 49.58463 44.31874 16272 ft 352 kts 188°
2026-04-26 15:12 49.56030 44.31656 15786 ft 348 kts 188°
2026-04-26 15:13 49.53612 44.31493 15279 ft 347 kts 186°
2026-04-26 15:13 49.51202 44.31468 14758 ft 346 kts 184°
2026-04-26 15:13 49.48795 44.31519 14230 ft 346 kts 183°
2026-04-26 15:13 49.46393 44.31598 13688 ft 344 kts 183°
2026-04-26 15:14 49.44001 44.31674 13084 ft 343 kts 183°
2026-04-26 15:14 49.41624 44.31737 12528 ft 340 kts 183°
2026-04-26 15:14 49.39275 44.31785 11964 ft 336 kts 184°
2026-04-26 15:14 49.36945 44.31821 11392 ft 333 kts 183°
2026-04-26 15:15 49.34634 44.31851 10830 ft 330 kts 183°
2026-04-26 15:15 49.32364 44.31880 10562 ft 319 kts 184°
2026-04-26 15:15 49.30199 44.31911 10440 ft 304 kts 184°
2026-04-26 15:15 49.28134 44.31942 10313 ft 291 kts 184°
2026-04-26 15:16 49.26154 44.31970 10194 ft 279 kts 184°
2026-04-26 15:16 49.24244 44.31995 9985 ft 271 kts 184°
2026-04-26 15:16 49.22374 44.32016 9767 ft 266 kts 185°
2026-04-26 15:16 49.20529 44.32035 9637 ft 265 kts 185°
2026-04-26 15:17 49.18690 44.32053 9501 ft 264 kts 185°
2026-04-26 15:17 49.18073 44.32060 9454 ft 263 kts 185°
2026-04-26 15:17 49.15623 44.32087 9069 ft 262 kts 185°
2026-04-26 15:17 49.13831 44.32241 8717 ft 264 kts 176°
2026-04-26 15:18 49.12062 44.33063 8345 ft 270 kts 162°
2026-04-26 15:18 49.10378 44.34372 7967 ft 270 kts 160°
2026-04-26 15:18 49.08709 44.35677 7589 ft 269 kts 160°
2026-04-26 15:18 49.07053 44.36965 7214 ft 267 kts 160°
2026-04-26 15:19 49.05404 44.38243 6842 ft 265 kts 160°
2026-04-26 15:19 49.03771 44.39505 6471 ft 263 kts 160°
2026-04-26 15:19 49.02147 44.40759 6100 ft 261 kts 160°
2026-04-26 15:19 49.00533 44.42005 5721 ft 259 kts 160°
2026-04-26 15:20 48.98935 44.43237 5466 ft 257 kts 160°
2026-04-26 15:20 48.97345 44.44460 5134 ft 256 kts 160°
2026-04-26 15:20 48.95763 44.45677 4776 ft 254 kts 160°
2026-04-26 15:20 48.94192 44.46886 4419 ft 252 kts 160°
2026-04-26 15:21 48.92627 44.48089 4060 ft 251 kts 160°
2026-04-26 15:21 48.91201 44.49166 3605 ft 253 kts 160°
2026-04-26 15:21 48.89607 44.50319 3174 ft 252 kts 161°
2026-04-26 15:21 48.88051 44.51435 2885 ft 237 kts 160°
2026-04-26 15:22 48.86605 44.52309 2817 ft 212 kts 172°
2026-04-26 15:22 48.85203 44.52500 2728 ft 196 kts 187°
2026-04-26 15:22 48.83923 44.52092 2632 ft 181 kts 205°
2026-04-26 15:22 48.83146 44.50758 2595 ft 171 kts 250°
2026-04-26 15:23 48.82947 44.49051 2473 ft 159 kts 248°
2026-04-26 15:23 48.82448 44.47609 2277 ft 152 kts 239°
2026-04-26 15:23 48.82026 44.46236 2090 ft 134 kts 239°
2026-04-26 15:23 48.81643 44.45007 1888 ft 124 kts 238°
2026-04-26 15:24 48.81279 44.43851 1743 ft 120 kts 237°
2026-04-26 15:24 48.80922 44.42719 1550 ft 119 kts 237°
2026-04-26 15:24 48.80568 44.41589 1402 ft 118 kts 238°
2026-04-26 15:24 48.80213 44.40464 1289 ft 118 kts 238°
2026-04-26 15:25 48.79849 44.39329 1075 ft 121 kts 240°
2026-04-26 15:25 48.79610 44.38564 994 ft 123 kts 241°
2026-04-26 15:25 48.79119 44.36991 773 ft 124 kts 241°
2026-04-26 15:25 48.78748 44.35821 597 ft 123 kts 241°
2026-04-26 15:26 48.78383 44.34679 474 ft 111 kts 243°
2026-04-26 15:26 48.78160 44.33998 474 ft 29 kts 244°
2026-04-26 15:26 48.78108 44.33829 469 ft 18 kts 245°
2026-04-26 15:26 48.78054 44.33649 462 ft 20 kts 246°
2026-04-26 15:27 48.77988 44.33436 457 ft 23 kts 243°
2026-04-26 15:27 48.77915 44.33209 450 ft 26 kts 244°
2026-04-26 15:27 48.77834 44.32953 439 ft 28 kts 244°
2026-04-26 15:27 48.77746 44.32677 429 ft 29 kts 244°
2026-04-26 15:28 48.77657 44.32395 426 ft 30 kts 244°
2026-04-26 15:28 48.77571 44.32124 413 ft 27 kts 244°
2026-04-26 15:28 48.77516 44.31951 414 ft 12 kts 244°
2026-04-26 15:28 48.77520 44.31833 411 ft 13 kts 321°
2026-04-26 15:29 48.77593 44.31781 414 ft 10 kts 335°
2026-04-26 15:29 48.77649 44.31805 419 ft 9 kts 53°
2026-04-26 15:29 48.77698 44.31953 417 ft 7 kts 64°
2026-04-26 15:30 48.77755 44.32131 420 ft 9 kts 65°
2026-04-26 15:30 48.77758 44.32143 422 ft 0 kts 65°
2026-04-26 15:31 48.77759 44.32146 417 ft 2 kts 65°
2026-04-26 15:31 48.77785 44.32229 424 ft 15 kts 64°
2026-04-26 15:32 48.77869 44.32493 428 ft 19 kts 64°
2026-04-26 15:32 48.77950 44.32747 437 ft 21 kts 64°
2026-04-26 15:32 48.78010 44.32938 450 ft 19 kts 64°
2026-04-26 15:33 48.78063 44.33105 455 ft 17 kts 64°
2026-04-26 15:33 48.78120 44.33282 460 ft 20 kts 64°
2026-04-26 15:33 48.78186 44.33490 465 ft 23 kts 64°
2026-04-26 15:33 48.78260 44.33723 473 ft 25 kts 64°
2026-04-26 15:34 48.78329 44.33943 474 ft 20 kts 64°
2026-04-26 15:34 48.78388 44.34129 472 ft 20 kts 63°
2026-04-26 15:34 48.78452 44.34204 475 ft 6 kts 349°
2026-04-26 15:34 48.78490 44.34188 480 ft 6 kts 344°
2026-04-26 15:35 48.78547 44.34165 479 ft 11 kts 345°
2026-04-26 15:35 48.78621 44.34148 484 ft 11 kts 10°
2026-04-26 15:35 48.78664 44.34230 484 ft 10 kts 69°
2026-04-26 15:35 48.78688 44.34328 484 ft 10 kts 69°
2026-04-26 15:36 48.78715 44.34430 480 ft 12 kts 68°
2026-04-26 15:36 48.78750 44.34566 479 ft 15 kts 69°
2026-04-26 15:36 48.78789 44.34722 481 ft 17 kts 69°
2026-04-26 15:36 48.78830 44.34890 481 ft 17 kts 69°
2026-04-26 15:37 48.78870 44.35046 481 ft 13 kts 67°
2026-04-26 15:37 48.78928 44.35150 480 ft 13 kts 60°
2026-04-26 15:37 48.78961 44.35284 483 ft 14 kts 70°
2026-04-26 15:37 48.78997 44.35430 483 ft 13 kts 69°
2026-04-26 15:38 48.79021 44.35524 482 ft 8 kts 69°
2026-04-26 15:38 48.79039 44.35580 482 ft 5 kts 39°
2026-04-26 15:38 48.79075 44.35568 484 ft 5 kts 338°
2026-04-26 15:38 48.79091 44.35559 486 ft 2 kts 339°
2026-04-26 15:39 48.79095 44.35556 486 ft 0 kts 339°